[[{"header":{"parameterUnit":"m.s-1","parameterCategory":1,"la1":30.2991,"la2":30.254,"lo1":-89.0895,"lo2":-89.0444,"dy":0.0017,"dx":0.0017,"nx":28,"ny":28,"refTime":"2025-06-06T03:00:00:Z","depth":0,"parameterNumber":2,"parameterNumberName":"U-component_of_WINDS"},"data":[0,0,0,0,0,0,0,0,0,0,0,0,0,0,0,0,0,0,0,0,0,0,0,0,0,0,0,0,0,0,0,0,0,0,0,0,0,0,0,0,0,0,0,0,0,0,0,0,0,0,0,0,0,0,0,0,0,0,1.8162,1.8163,0,1.8282,1.8283,1.8285,1.8271,1.8269,1.8267,1.8265,1.8393,1.8398,1.8403,0,0,0,0,0,0,0,0,0,0,0,0,0,1.7922,1.7927,1.8161,1.8163,1.8164,1.8282,1.8283,1.8285,1.8271,1.8269,1.8266,1.8264,1.8391,1.8397,1.8403,0,0,0,0,0,0,0,0,0,0,0,0,0,1.8033,1.7928,1.8161,1.8171,1.8174,1.8281,1.8283,1.8285,1.8271,1.8269,1.8266,1.8263,1.8389,1.8396,1.8404,1.8511,0,0,1.8428,1.8431,0,0,0,0,0,0,0,0,1.8027,1.8042,1.8168,1.8171,1.8173,1.8258,1.8246,1.8361,1.8272,1.8234,1.8265,1.8261,1.8351,1.8361,1.839,1.8517,1.8522,1.8429,1.8433,1.8437,1.8439,0,0,0,0,0,0,0,1.8019,1.8036,1.8209,1.817,1.8173,1.8171,1.8183,1.8268,1.8308,1.8238,1.8237,1.8251,1.8351,1.8383,1.8393,1.8524,1.8428,1.8435,1.844,1.8443,1.8743,1.8746,0,0,0,0,0,0,1.8008,1.803,1.8205,1.8213,1.8091,1.8178,1.8192,1.8234,1.8306,1.8315,1.8253,1.825,1.8371,1.8384,1.8398,1.8527,1.8437,1.8444,1.8449,1.874,1.8744,1.8747,0,0,0,0,0,0,1.8003,1.8024,1.82,1.8121,1.8144,1.8185,1.8233,1.8238,1.8269,1.8318,1.8326,1.8278,1.8369,1.8387,1.8482,1.8531,1.8448,1.8455,1.8736,1.8741,1.8746,1.8787,0,0,0,0,0,0,1.7996,1.8022,1.8063,1.8122,1.8148,1.8282,1.8236,1.8242,1.8282,1.8279,1.8344,1.8352,1.8368,1.8471,1.849,1.8541,1.8461,1.8732,1.8738,1.8744,1.8781,1.8792,1.8802,0,0,0,0,0,1.7988,1.8071,1.8065,1.8086,1.8199,1.8285,1.83,1.8316,1.8286,1.8328,1.8359,1.8349,1.8522,1.848,1.8502,1.8556,1.8729,1.8736,1.8743,1.8777,1.879,1.8802,0,0,0,0,0,0,1.8018,1.8079,1.8073,1.8177,1.8226,1.8282,1.8335,1.833,1.839,1.8384,1.8403,1.8418,1.8514,1.8545,1.8497,1.8662,1.8622,1.8634,1.8639,1.8653,1.8663,1.8654,1.8467,0,0,0,0,0,1.8036,1.81,1.815,1.8237,1.8262,1.8294,1.8332,1.834,1.8392,1.8413,1.8452,1.8503,1.8569,1.8612,1.8676,1.8785,1.8799,1.8832,1.8843,1.8851,1.8862,1.8922,1.8937,1.8771,1.8771,1.8771,0,0,1.8075,1.8116,1.8156,1.8244,1.8283,1.8349,1.8312,1.8384,1.8434,1.8425,1.8517,1.8547,1.8606,1.8708,1.8755,1.8736,1.891,1.886,1.8867,1.8873,1.8931,1.8946,1.896,1.8776,1.8776,1.8775,0,0,1.8181,1.8218,1.8295,1.8333,1.8392,1.8412,1.8431,1.8488,1.8507,1.8599,1.8593,1.8653,1.8766,1.8809,1.8845,1.8964,1.8958,1.8984,1.904,1.9098,1.9111,1.9122,1.9165,1.9181,1.8994,1.8995,1.8995,0,1.8223,1.8322,1.8335,1.8407,1.8446,1.8439,1.8517,1.8554,1.8631,1.8659,1.8636,1.8777,1.8816,1.8928,1.8957,1.8986,1.9009,1.8978,1.9107,1.9119,1.913,1.9172,1.9188,1.8997,1.8997,1.8997,1.8997,0,1.8371,1.8439,1.8494,1.8566,1.8611,1.8686,1.8711,1.8756,1.8759,1.8782,1.8877,1.8923,1.8995,1.9022,1.9027,1.9135,1.9121,1.9103,1.9063,1.9149,1.9188,1.9204,1.9002,1.9001,1.9,1.8999,0,0,1.8501,1.8577,1.8597,1.863,1.8692,1.8746,1.8821,1.889,1.8927,1.898,1.9044,1.9138,1.9121,1.9162,1.9171,1.9222,1.9314,1.9197,1.9199,1.9218,1.9436,1.9451,1.9469,1.9309,1.9312,1.9315,1.9431,0,1.8613,1.8744,1.8757,1.8874,1.8937,1.893,1.8995,1.9041,1.9064,1.9122,1.9149,1.9216,1.9187,1.9212,1.9262,1.9292,1.9358,1.9284,1.937,1.9373,1.9357,1.9489,1.9505,1.9613,1.9447,1.9449,1.9451,0,1.8762,1.8817,1.894,1.8993,1.902,1.9078,1.9142,1.9197,1.9249,1.9262,1.9307,1.9309,1.9387,1.9342,1.9449,1.9398,1.9434,1.9454,1.9459,1.9469,1.9419,1.9504,1.9648,1.9665,1.9476,1.9474,1.9472,0,1.8846,1.895,1.9037,1.9065,1.9129,1.917,1.9198,1.9247,1.9287,1.9343,1.937,1.9434,1.947,1.9521,1.9541,1.9506,1.9647,1.9604,1.9662,1.9662,1.9694,1.9692,1.9847,1.9714,1.9714,1.9714,1.9713,0,1.8971,1.9047,1.9075,1.9129,1.9214,1.9228,1.9312,1.9338,1.9381,1.9441,1.9438,1.9495,1.9517,1.9577,1.9593,1.9679,1.9696,1.9709,1.9713,1.9711,1.9709,1.9736,1.9729,1.9718,1.9717,1.9716,1.9716,0,1.9079,1.9101,1.9196,1.9247,1.9262,1.9322,1.9367,1.9419,1.944,1.9515,1.9534,1.9568,1.9639,1.9663,1.9748,1.9759,1.986,1.9857,1.9843,1.9844,1.99,1.9895,2.0079,2.0105,1.9954,1.9955,1.9957,0,1.9158,1.9216,1.9273,1.9312,1.9341,1.9404,1.9444,1.946,1.9503,1.9565,1.961,1.9679,1.9735,1.9848,1.9881,1.9947,1.9946,2.0005,1.9956,1.9951,1.9948,1.9945,1.9951,2.0016,2.0017,2.0018,2.0019,0,1.9297,1.9304,1.9362,1.9423,1.9471,1.9521,1.9569,1.9601,1.9623,1.9671,1.9742,1.9785,1.9871,1.994,2.0007,2.0037,2.0033,2.0034,2.0051,2.005,2.004,2.0047,1.9869,2.0031,2.003,2.0029,2.0028,2.0028,1.9394,1.9445,1.9492,1.9556,1.9593,1.9638,1.9689,1.9716,1.9774,1.9845,1.985,1.9927,1.9977,2.0065,2.0098,2.0159,2.0143,2.0167,2.0174,2.018,2.0184,2.0028,2.0171,2.0171,2.017,2.017,2.017,0,1.9533,1.9562,1.9621,1.9687,1.9738,1.9726,1.9778,1.9821,1.9888,1.9934,1.9988,2.007,2.0136,2.0174,2.024,2.0282,2.0281,2.0299,2.0297,2.0304,2.0195,2.0174,2.0298,2.0298,2.0298,2.0298,2.0298,2.0298,1.9611,1.9697,1.971,1.9813,1.9842,1.9916,1.9947,1.9988,2.0024,2.0114,2.0169,2.0192,2.0235,2.0304,2.0365,2.0374,2.0399,2.0419,2.0427,2.0325,2.0312,2.0299,2.028,2.0424,2.0424,2.0531,2.0532,2.0533]},{"header":{"parameterUnit":"m.s-1","parameterCategory":1,"la1":30.2991,"la2":30.254,"lo1":-89.0895,"lo2":-89.0444,"dy":0.0017,"dx":0.0017,"nx":28,"ny":28,"refTime":"2025-06-06T03:00:00:Z","depth":0,"parameterNumber":3,"parameterNumberName":"V-component_of_WINDS"},"data":[0,0,0,0,0,0,0,0,0,0,0,0,0,0,0,0,0,0,0,0,0,0,0,0,0,0,0,0,0,0,0,0,0,0,0,0,0,0,0,0,0,0,0,0,0,0,0,0,0,0,0,0,0,0,0,0,0,0,4.2396,4.2398,0,4.2549,4.2551,4.2553,4.2537,4.2535,4.2532,4.253,4.2679,4.2685,4.2691,0,0,0,0,0,0,0,0,0,0,0,0,0,4.2083,4.2089,4.2396,4.2398,4.24,4.2549,4.2551,4.2553,4.2537,4.2534,4.2532,4.2529,4.2677,4.2684,4.2691,0,0,0,0,0,0,0,0,0,0,0,0,0,4.2226,4.2091,4.2396,4.241,4.2413,4.2548,4.2551,4.2553,4.2538,4.2534,4.2531,4.2528,4.2674,4.2683,4.2692,4.2821,0,0,4.2721,4.2725,0,0,0,0,0,0,0,0,4.2218,4.2237,4.2406,4.2409,4.2413,4.2521,4.2495,4.2643,4.2539,4.249,4.253,4.2526,4.2628,4.2641,4.2677,4.2828,4.2834,4.2722,4.2727,4.2731,4.2734,0,0,0,0,0,0,0,4.2208,4.2231,4.2456,4.2409,4.2413,4.2407,4.2423,4.2523,4.2577,4.2494,4.2494,4.2512,4.2629,4.2669,4.2681,4.2836,4.2721,4.273,4.2735,4.2739,4.31,4.3104,0,0,0,0,0,0,4.2196,4.2222,4.2451,4.2461,4.2305,4.2415,4.2434,4.2489,4.2576,4.2586,4.2515,4.2511,4.2655,4.267,4.2686,4.2843,4.2731,4.274,4.2745,4.3096,4.3101,4.3105,0,0,0,0,0,0,4.2189,4.2216,4.2445,4.2342,4.237,4.2425,4.2487,4.2494,4.2534,4.2592,4.2601,4.2546,4.2652,4.2673,4.2788,4.2848,4.2744,4.2752,4.3091,4.3097,4.3103,4.3158,0,0,0,0,0,0,4.218,4.2214,4.2265,4.2343,4.2376,4.2547,4.2491,4.25,4.255,4.2546,4.2623,4.2632,4.2651,4.2774,4.2797,4.2859,4.276,4.3086,4.3094,4.3101,4.3151,4.3165,4.3177,0,0,0,0,0,4.2169,4.2272,4.2268,4.2295,4.2441,4.2551,4.2569,4.2592,4.2555,4.2606,4.2644,4.263,4.2838,4.2786,4.2812,4.2877,4.3082,4.3092,4.3101,4.3145,4.3163,4.3177,0,0,0,0,0,0,4.2197,4.2283,4.2279,4.2411,4.2474,4.2548,4.2613,4.2609,4.2681,4.2674,4.2696,4.2713,4.283,4.2864,4.2806,4.3006,4.2955,4.2969,4.298,4.2997,4.301,4.3,4.2767,0,0,0,0,0,4.2219,4.2303,4.2372,4.2482,4.2515,4.2558,4.2607,4.2619,4.2684,4.271,4.2755,4.2817,4.2897,4.2948,4.3024,4.3155,4.3172,4.3213,4.3226,4.3236,4.3249,4.3322,4.3342,4.3135,4.3135,4.3135,0,0,4.2264,4.2322,4.2373,4.2489,4.254,4.2625,4.2581,4.2672,4.2735,4.2722,4.2836,4.2871,4.2941,4.3066,4.3122,4.3098,4.331,4.3248,4.3256,4.3263,4.3334,4.3353,4.337,4.3141,4.314,4.3139,0,0,4.2391,4.2443,4.2541,4.2593,4.2671,4.27,4.2723,4.2799,4.2823,4.2937,4.293,4.3003,4.3139,4.319,4.3234,4.3381,4.3371,4.3404,4.3473,4.3544,4.356,4.3575,4.3628,4.3647,4.3416,4.3416,4.3417,0,4.2438,4.2568,4.2591,4.2685,4.2736,4.2732,4.2831,4.2879,4.2976,4.3011,4.2982,4.3154,4.3201,4.3338,4.3374,4.3409,4.3435,4.3396,4.3556,4.3571,4.3585,4.3636,4.3656,4.342,4.342,4.3419,4.3419,0,4.2622,4.2712,4.2781,4.288,4.2938,4.3033,4.307,4.3126,4.3132,4.3163,4.3279,4.3335,4.3423,4.3455,4.3461,4.3593,4.3576,4.3552,4.3501,4.3608,4.3657,4.3677,4.3426,4.3424,4.3423,4.3422,0,0,4.2771,4.2882,4.2908,4.2953,4.3038,4.3108,4.3202,4.3291,4.3339,4.3406,4.3485,4.3601,4.358,4.3629,4.364,4.3702,4.3816,4.367,4.3672,4.3697,4.3967,4.3986,4.4008,4.381,4.3813,4.3816,4.3961,0,4.2908,4.308,4.3104,4.3254,4.3338,4.3334,4.3416,4.3477,4.3508,4.3581,4.3614,4.3697,4.3662,4.3692,4.3753,4.379,4.3871,4.3779,4.3883,4.3886,4.3868,4.4033,4.4054,4.4188,4.398,4.3983,4.3986,0,4.3091,4.3167,4.3327,4.3403,4.3439,4.3513,4.3597,4.3667,4.3735,4.3753,4.3809,4.3813,4.3909,4.3853,4.3985,4.3922,4.3965,4.3989,4.3995,4.4007,4.3944,4.4051,4.4231,4.4252,4.4016,4.4013,4.4011,0,4.3187,4.3328,4.3443,4.3481,4.3571,4.3624,4.3663,4.3728,4.378,4.3852,4.3886,4.3967,4.4012,4.4073,4.4098,4.4055,4.4229,4.4174,4.4246,4.4246,4.4284,4.4282,4.4475,4.4309,4.4309,4.4309,4.4308,0,4.3338,4.3436,4.3487,4.3558,4.3667,4.3692,4.3799,4.3836,4.3894,4.397,4.397,4.4041,4.4068,4.4143,4.4162,4.427,4.4289,4.4305,4.431,4.4307,4.4305,4.4337,4.4329,4.4314,4.4313,4.4312,4.4311,0,4.3464,4.3502,4.3627,4.3703,4.3724,4.3802,4.3866,4.3933,4.3964,4.406,4.4084,4.4131,4.4219,4.425,4.4355,4.4368,4.4493,4.4489,4.4472,4.4473,4.4544,4.4538,4.4766,4.4798,4.4609,4.4611,4.4612,0,4.3559,4.3635,4.3721,4.3774,4.3816,4.39,4.3955,4.3981,4.4037,4.4121,4.4178,4.4266,4.4339,4.4479,4.4521,4.4602,4.46,4.4675,4.4612,4.4607,4.4603,4.4599,4.4607,4.4687,4.4689,4.469,4.4691,0,4.3725,4.374,4.382,4.3907,4.3973,4.4041,4.4108,4.415,4.4186,4.4249,4.4341,4.4398,4.4507,4.4595,4.4678,4.4715,4.471,4.4711,4.4732,4.4731,4.4719,4.4728,4.4506,4.4706,4.4704,4.4703,4.4702,4.4702,4.3839,4.3907,4.3979,4.4068,4.4122,4.4184,4.4252,4.4292,4.437,4.4464,4.4474,4.4573,4.4638,4.475,4.4791,4.4868,4.4847,4.4877,4.4885,4.4893,4.4899,4.4705,4.4882,4.4882,4.4882,4.4881,4.4881,0,4.4006,4.4053,4.4134,4.4229,4.4299,4.429,4.4363,4.4421,4.451,4.4572,4.4645,4.475,4.4835,4.4884,4.4969,4.5021,4.502,4.5042,4.5039,4.5048,4.4912,4.4886,4.5041,4.5041,4.5041,4.5041,4.5041,4.5041,4.4102,4.4217,4.4241,4.4382,4.4427,4.4527,4.457,4.4627,4.4677,4.4797,4.4869,4.4901,4.4958,4.5047,4.5124,4.5136,4.5168,4.5192,4.5202,4.5074,4.5058,4.5042,4.5018,4.5198,4.5199,4.5333,4.5334,4.5335]}]]